User: anonymous   Login
Location: Allos
(44.2333°N, 6.6333°E)
Time: 08:09:47
(UTC+00:00)
Language:

STARS - Orbit

View from above orbital plane
View from above orbital plane
View from above satellite
View from above satellite

Ground track
Ground track

The orbit data is extracted from the following two-line orbital elements,

1 33498U 09002G   21130.92620553  .00000217  00000-0  36538-4 0  9996
2 33498  98.2190  10.1782 0012195 104.6960 255.5603 14.79336205661910
Epoch (UTC): 10 May 2021 22:13:44
Eccentricity: 0.0012195
inclination: 98.2190°
perigee height: 623 km
apogee height: 640 km
right ascension of ascending node: 10.1782°
argument of perigee: 104.6960°
revolutions per day: 14.79336205
mean anomaly at epoch: 255.5603°
orbit number at epoch: 66191

The dashed part of the orbit path shows where the satellite is in the earth's shadow,  

DLR